This is the latest recevied weather packets stored in our database for station/object W8AN. If no packets are shown the sender has not sent any weather packets the latest 1 day(s).
| Time | Temp. | Humidity | Pressure | Rain* | Wind** | Luminosity | Snow |
|---|---|---|---|---|---|---|---|
| 1777982596 | 14.44° C | 77% | 4260.3 hPa | 0 mm | 4.02 m/s, 252° | 127 W/m² | - |
| 1777982294 | 14.44° C | 76% | 4260.1 hPa | 0 mm | 4.92 m/s, 228° | 95 W/m² | - |
| 1777981992 | 14.44° C | 77% | 4260.1 hPa | 0 mm | 5.81 m/s, 219° | 80 W/m² | - |
| 1777981689 | 14.44° C | 77% | 4260.4 hPa | 0 mm | 4.92 m/s, 231° | 83 W/m² | - |
| 1777981386 | 14.44° C | 77% | 4259.9 hPa | 0 mm | 4.47 m/s, 214° | 74 W/m² | - |
| 1777981082 | 14.44° C | 76% | 4259.9 hPa | 0 mm | 3.58 m/s, 291° | 69 W/m² | - |
| 1777980778 | 14.44° C | 76% | 4259.6 hPa | 0 mm | 4.92 m/s, 241° | 52 W/m² | - |
| 1777980474 | 14.44° C | 76% | 4259.6 hPa | 0 mm | 3.13 m/s, 225° | 41 W/m² | - |
| 1777980173 | 14.44° C | 77% | 4259.4 hPa | 0 mm | 2.24 m/s, 256° | 36 W/m² | - |
| 1777979873 | 14.44° C | 77% | 4259.1 hPa | 0 mm | 3.13 m/s, 225° | 29 W/m² | - |
| 1777979568 | 14.44° C | 77% | 4258.9 hPa | 0 mm | 4.02 m/s, 232° | 27 W/m² | - |
| 1777979265 | 14.44° C | 76% | 4258.8 hPa | 0 mm | 3.13 m/s, 236° | 19 W/m² | - |
| 1777978963 | 14.44° C | 77% | 4258.6 hPa | 0 mm | 3.13 m/s, 226° | 13 W/m² | - |
| 1777978659 | 14.44° C | 77% | 4258.8 hPa | 0 mm | 3.58 m/s, 230° | 10 W/m² | - |
| 1777978354 | 14.44° C | 78% | 4258.9 hPa | 0 mm | 2.68 m/s, 225° | 6 W/m² | - |
| 1777978051 | 14.44° C | 78% | 4258.4 hPa | 0 mm | 4.02 m/s, 247° | 2 W/m² | - |
| 1777977749 | 14.44° C | 78% | 4258.5 hPa | 0 mm | 4.02 m/s, 211° | 1 W/m² | - |
| 1777977445 | 14.44° C | 78% | 4258.5 hPa | 0 mm | 3.58 m/s, 229° | 0 W/m² | - |
| 1777977143 | 14.44° C | 78% | 4258.4 hPa | 0 mm | 2.68 m/s, 213° | 0 W/m² | - |
| 1777976840 | 14.44° C | 78% | 4258.3 hPa | 0 mm | 3.13 m/s, 217° | 0 W/m² | - |
| 1777976538 | 14.44° C | 77% | 4258.1 hPa | 0 mm | 3.13 m/s, 251° | 0 W/m² | - |
| 1777976237 | 15° C | 76% | 4258 hPa | 0 mm | 4.02 m/s, 221° | 0 W/m² | - |
| 1777975932 | 15° C | 75% | 4257.9 hPa | 0 mm | 3.58 m/s, 238° | 0 W/m² | - |
| 1777975629 | 15° C | 75% | 4258.3 hPa | 0 mm | 3.58 m/s, 213° | 0 W/m² | - |
| 1777975326 | 15° C | 74% | 4258.1 hPa | 0 mm | 3.13 m/s, 208° | 0 W/m² | - |
* Rain latest hour (hover to see other rain measurements)
** Current wind speed in m/s (hover to see current wind gust speed)